INNOSAT 16 (RS92S7)

Last updated on Thu Oct 30 2025 00:03:11 GMT+0000 (Coordinated Universal Time)

1 64878U 25155C 25302.19014057 .00006780 00000+0 29799-3 0 9999 2 64878 97.4267 266.0737 0009259 280.6284 79.3909 15.22189131 45498
UTC large
Height (km)
Speed (km/s)
/
Latitude / Longitude
Inclination (degrees)
Orbital Period (minutes)
Azimuth
Elevation
Range (km)
Doppler Factor

Next 0 passes for location: London (51.5072 / 0.1276)

Sorry there are no passes over London.